When you browse on this site, cookies collect data to enhance your experience and personalize the content and advertising you see.
Visit our Privacy Policy to learn more. By continuing to use the site, you agree to this use of cookies and data.
  • In Deutschland
  • Länderverzeichnis
  • Für 7 Tage
  • Wassertemperatur
  • Satellitenkarten
  • Wetterkarte
  • Widgets
  • user-avatar
    Anmelden

    Stündliche Wetter Bangalore

    Heute, 17 Dezember, Montag

    Zeit Temperatur Niederschläge Wind Luftdruck Luftfeuchtigkeit
    00:00 +18°C° 0 mm 2 m/S 684 mmHg 62%
    01:00 +17°C° 0 mm 2 m/S 684 mmHg 63%
    02:00 +17°C° 0 mm 2 m/S 683 mmHg 63%
    03:00 +17°C° 0 mm 2 m/S 683 mmHg 63%
    04:00 +16°C° 0 mm 2 m/S 683 mmHg 63%
    05:00 +16°C° 0 mm 2 m/S 683 mmHg 65%
    06:00 +17°C° 0 mm 2 m/S 684 mmHg 61%
    07:00 +18°C° 0 mm 3 m/S 684 mmHg 58%
    08:00 +19°C° 0 mm 3 m/S 685 mmHg 55%
    09:00 +21°C° 0 mm 4 m/S 685 mmHg 49%
    10:00 +23°C° 0 mm 4 m/S 685 mmHg 43%
    11:00 +26°C° 0 mm 4 m/S 685 mmHg 36%
    12:00 +26°C° 0 mm 5 m/S 684 mmHg 35%
    13:00 +27°C° 0 mm 5 m/S 684 mmHg 34%
    14:00 +28°C° 0 mm 5 m/S 684 mmHg 33%
    15:00 +26°C° 0 mm 4 m/S 683 mmHg 36%
    16:00 +25°C° 0 mm 3 m/S 683 mmHg 40%
    17:00 +24°C° 0 mm 2 m/S 683 mmHg 43%
    18:00 +23°C° 0 mm 2 m/S 683 mmHg 44%
    19:00 +21°C° 0 mm 2 m/S 684 mmHg 45%
    20:00 +20°C° 0 mm 2 m/S 684 mmHg 45%
    21:00 +19°C° 0 mm 2 m/S 684 mmHg 46%
    22:00 +19°C° 0 mm 2 m/S 684 mmHg 47%
    23:00 +18°C° 0 mm 2 m/S 684 mmHg 48%

    Morgen, 18 Dezember, Dienstag

    Zeit Temperatur Niederschläge Wind Luftdruck Luftfeuchtigkeit
    00:00 +18°C° 0 mm 2 m/S 684 mmHg 51%
    01:00 +18°C° 0 mm 1 m/S 684 mmHg 54%
    02:00 +18°C° 0 mm 1 m/S 684 mmHg 56%
    03:00 +18°C° 0 mm 1 m/S 684 mmHg 62%
    04:00 +16°C° 0 mm 2 m/S 684 mmHg 67%
    05:00 +16°C° 0 mm 2 m/S 684 mmHg 73%
    06:00 +17°C° 0 mm 2 m/S 684 mmHg 71%
    07:00 +18°C° 0 mm 2 m/S 685 mmHg 70%
    08:00 +19°C° 0 mm 2 m/S 686 mmHg 69%
    09:00 +21°C° 0 mm 2 m/S 686 mmHg 60%
    10:00 +24°C° 0 mm 3 m/S 686 mmHg 52%
    11:00 +26°C° 0 mm 3 m/S 686 mmHg 43%
    12:00 +27°C° 0 mm 3 m/S 685 mmHg 41%
    13:00 +28°C° 0 mm 3 m/S 684 mmHg 38%
    14:00 +28°C° 0 mm 3 m/S 684 mmHg 35%
    15:00 +27°C° 0 mm 3 m/S 683 mmHg 39%
    16:00 +26°C° 0 mm 3 m/S 683 mmHg 43%
    17:00 +25°C° 0 mm 2 m/S 683 mmHg 46%
    18:00 +24°C° 0 mm 2 m/S 684 mmHg 49%
    19:00 +22°C° 0 mm 3 m/S 684 mmHg 52%
    20:00 +20°C° 0 mm 3 m/S 684 mmHg 55%
    21:00 +20°C° 0 mm 3 m/S 684 mmHg 60%
    22:00 +19°C° 0 mm 3 m/S 684 mmHg 64%
    23:00 +19°C° 0 mm 3 m/S 684 mmHg 69%

    übermorgen, 19 Dezember, Mittwoch

    Zeit Temperatur Niederschläge Wind Luftdruck Luftfeuchtigkeit
    00:00 +18°C° 0 mm 3 m/S 684 mmHg 74%
    01:00 +17°C° 0 mm 3 m/S 683 mmHg 79%
    02:00 +17°C° 0 mm 2 m/S 683 mmHg 84%
    03:00 +16°C° 0 mm 2 m/S 683 mmHg 86%
    04:00 +16°C° 0 mm 2 m/S 683 mmHg 88%
    05:00 +16°C° 0 mm 2 m/S 683 mmHg 90%
    06:00 +17°C° 0 mm 2 m/S 684 mmHg 86%
    07:00 +18°C° 0 mm 2 m/S 685 mmHg 81%
    08:00 +19°C° 0 mm 2 m/S 686 mmHg 76%
    09:00 +21°C° 0 mm 2 m/S 686 mmHg 69%
    10:00 +24°C° 0 mm 2 m/S 686 mmHg 61%
    11:00 +25°C° 0 mm 2 m/S 686 mmHg 53%
    12:00 +26°C° 0 mm 2 m/S 685 mmHg 49%
    13:00 +27°C° 0 mm 2 m/S 684 mmHg 46%
    14:00 +28°C° 0 mm 1 m/S 684 mmHg 42%
    15:00 +27°C° 0 mm 2 m/S 684 mmHg 45%
    16:00 +27°C° 0 mm 2 m/S 684 mmHg 47%
    17:00 +26°C° 0 mm 2 m/S 684 mmHg 50%
    18:00 +24°C° 0 mm 2 m/S 684 mmHg 56%
    19:00 +22°C° 0 mm 3 m/S 684 mmHg 63%
    20:00 +21°C° 0 mm 3 m/S 685 mmHg 69%
    21:00 +20°C° 0 mm 3 m/S 685 mmHg 73%
    22:00 +19°C° 0 mm 3 m/S 685 mmHg 77%
    23:00 +19°C° 0 mm 3 m/S 684 mmHg 82%

    20 Dezember, Donnerstag

    Zeit Temperatur Niederschläge Wind Luftdruck Luftfeuchtigkeit
    00:00 +18°C° 0 mm 3 m/S 684 mmHg 83%
    01:00 +18°C° 0 mm 2 m/S 684 mmHg 85%
    02:00 +17°C° 0 mm 2 m/S 683 mmHg 86%
    03:00 +17°C° 0 mm 2 m/S 683 mmHg 88%
    04:00 +17°C° 0 mm 2 m/S 683 mmHg 90%
    05:00 +17°C° 0 mm 2 m/S 683 mmHg 91%
    06:00 +18°C° 0 mm 2 m/S 684 mmHg 87%
    07:00 +19°C° 0 mm 2 m/S 685 mmHg 83%
    08:00 +20°C° 0 mm 2 m/S 686 mmHg 79%
    09:00 +22°C° 0 mm 3 m/S 686 mmHg 70%
    10:00 +24°C° 0 mm 3 m/S 686 mmHg 62%
    11:00 +26°C° 0 mm 3 m/S 686 mmHg 54%
    12:00 +27°C° 0 mm 3 m/S 685 mmHg 50%
    13:00 +28°C° 0 mm 3 m/S 685 mmHg 46%
    14:00 +29°C° 0 mm 3 m/S 684 mmHg 43%
    15:00 +28°C° 0 mm 3 m/S 684 mmHg 46%
    16:00 +27°C° 0 mm 3 m/S 684 mmHg 49%
    17:00 +26°C° 0 mm 3 m/S 683 mmHg 52%
    18:00 +25°C° 0 mm 3 m/S 684 mmHg 58%
    19:00 +24°C° 0 mm 3 m/S 684 mmHg 64%
    20:00 +21°C° 0 mm 3 m/S 685 mmHg 70%
    21:00 +21°C° 0 mm 3 m/S 685 mmHg 76%
    22:00 +20°C° 0 mm 3 m/S 685 mmHg 82%
    23:00 +19°C° 0 mm 3 m/S 684 mmHg 88%

    21 Dezember, Freitag

    Zeit Temperatur Niederschläge Wind Luftdruck Luftfeuchtigkeit
    00:00 +19°C° 0 mm 3 m/S 684 mmHg 91%
    01:00 +19°C° 0 mm 2 m/S 684 mmHg 93%
    02:00 +18°C° 0 mm 2 m/S 683 mmHg 95%
    03:00 +18°C° 0 mm 2 m/S 683 mmHg 95%
    04:00 +18°C° 0 mm 2 m/S 683 mmHg 95%
    05:00 +18°C° 0 mm 2 m/S 683 mmHg 95%
    06:00 +19°C° 0 mm 2 m/S 684 mmHg 90%
    07:00 +20°C° 0 mm 2 m/S 685 mmHg 85%
    08:00 +20°C° 0 mm 2 m/S 686 mmHg 80%
    09:00 +22°C° 0 mm 3 m/S 686 mmHg 71%
    10:00 +25°C° 0 mm 3 m/S 686 mmHg 62%
    11:00 +27°C° 0 mm 3 m/S 686 mmHg 52%
    12:00 +28°C° 0 mm 3 m/S 685 mmHg 52%
    13:00 +28°C° 0 mm 3 m/S 684 mmHg 52%
    14:00 +29°C° 0 mm 3 m/S 684 mmHg 52%
    15:00 +28°C° 0.3 mm 3 m/S 684 mmHg 58%
    16:00 +27°C° 0.3 mm 4 m/S 683 mmHg 64%
    17:00 +26°C° 0.3 mm 4 m/S 683 mmHg 70%
    18:00 +25°C° 0.4 mm 4 m/S 684 mmHg 75%
    19:00 +23°C° 0.4 mm 4 m/S 684 mmHg 80%
    20:00 +22°C° 0.4 mm 4 m/S 685 mmHg 85%
    21:00 +21°C° 0.1 mm 4 m/S 685 mmHg 86%
    22:00 +21°C° 0.1 mm 3 m/S 685 mmHg 87%
    23:00 +21°C° 0.1 mm 3 m/S 684 mmHg 87%

    22 Dezember, Samstag

    Zeit Temperatur Niederschläge Wind Luftdruck Luftfeuchtigkeit
    00:00 +20°C° 0 mm 3 m/S 684 mmHg 87%
    01:00 +20°C° 0 mm 2 m/S 683 mmHg 87%
    02:00 +20°C° 0 mm 2 m/S 683 mmHg 87%
    03:00 +20°C° 0 mm 2 m/S 683 mmHg 88%
    04:00 +19°C° 0 mm 2 m/S 683 mmHg 89%
    05:00 +19°C° 0 mm 2 m/S 683 mmHg 89%
    06:00 +20°C° 0 mm 2 m/S 684 mmHg 86%
    07:00 +21°C° 0 mm 3 m/S 685 mmHg 83%
    08:00 +22°C° 0 mm 3 m/S 686 mmHg 79%
    09:00 +24°C° 0.1 mm 3 m/S 686 mmHg 75%
    10:00 +25°C° 0.1 mm 4 m/S 686 mmHg 71%
    11:00 +26°C° 0.1 mm 4 m/S 686 mmHg 67%
    12:00 +27°C° 0.6 mm 4 m/S 685 mmHg 66%
    13:00 +27°C° 0.6 mm 4 m/S 684 mmHg 66%
    14:00 +27°C° 0.6 mm 4 m/S 683 mmHg 65%
    15:00 +27°C° 0.8 mm 4 m/S 683 mmHg 69%
    16:00 +26°C° 0.8 mm 4 m/S 683 mmHg 72%
    17:00 +25°C° 0.8 mm 4 m/S 683 mmHg 76%
    18:00 +23°C° 0.5 mm 4 m/S 684 mmHg 81%
    19:00 +22°C° 0.5 mm 4 m/S 684 mmHg 85%
    20:00 +22°C° 0.5 mm 4 m/S 685 mmHg 89%
    21:00 +21°C° 0.1 mm 4 m/S 685 mmHg 90%
    22:00 +21°C° 0.1 mm 4 m/S 685 mmHg 91%
    23:00 +21°C° 0.1 mm 3 m/S 685 mmHg 92%
    Mehr zeigen